Time,TemperatureF,DewpointF,PressureIn,WindDirection,WindDirectionDegrees,WindSpeedMPH,WindSpeedGustMPH,Humidity,HourlyPrecipIn,Conditions,Clouds,dailyrainin,SoftwareType,DateUTC
2014-10-25 00:04:00,61.2,58.5,30.09,South,180,0.0,0.0,91,0.00,,,0.00,VWS V15.00,2014-10-25 05:04:00,
2014-10-25 00:09:00,61.2,58.5,30.09,SE,135,0.0,0.0,91,0.00,,,0.00,VWS V15.00,2014-10-25 05:09:00,
2014-10-25 00:14:00,61.2,58.5,30.09,South,180,0.0,0.0,91,0.00,,,0.00,VWS V15.00,2014-10-25 05:14:00,
2014-10-25 00:19:00,61.2,58.5,30.09,SSE,158,0.0,0.0,91,0.00,,,0.00,VWS V15.00,2014-10-25 05:19:00,
2014-10-25 00:24:00,61.2,58.5,30.09,SSE,158,0.0,0.0,91,0.00,,,0.00,VWS V15.00,2014-10-25 05:24:00,
2014-10-25 00:29:00,61.2,58.5,30.09,SE,135,0.0,0.0,91,0.00,,,0.00,VWS V15.00,2014-10-25 05:29:00,
2014-10-25 00:34:00,61.3,58.7,30.06,SSE,158,0.0,0.0,91,0.00,,,0.00,VWS V15.00,2014-10-25 05:34:00,
2014-10-25 00:39:00,61.2,58.5,30.06,SE,135,0.0,0.0,91,0.00,,,0.00,VWS V15.00,2014-10-25 05:39:00,
2014-10-25 00:44:00,61.2,58.5,30.06,SSE,158,0.0,0.0,91,0.00,,,0.00,VWS V15.00,2014-10-25 05:44:00,
2014-10-25 00:49:00,61.3,58.7,30.06,SSE,158,0.0,0.0,91,0.00,,,0.00,VWS V15.00,2014-10-25 05:49:00,
2014-10-25 00:54:00,61.2,58.5,30.06,SSE,158,0.0,0.0,91,0.00,,,0.00,VWS V15.00,2014-10-25 05:54:00,
2014-10-25 00:59:00,61.3,58.7,30.06,South,180,0.0,0.0,91,0.00,,,0.00,VWS V15.00,2014-10-25 05:59:00,
2014-10-25 01:04:00,61.2,58.5,30.06,SE,135,0.0,0.0,91,0.00,,,0.00,VWS V15.00,2014-10-25 06:04:00,
2014-10-25 01:09:00,61.3,58.7,30.06,SE,135,0.0,0.0,91,0.00,,,0.00,VWS V15.00,2014-10-25 06:09:00,
2014-10-25 01:14:00,61.2,58.5,30.06,SE,135,0.0,0.0,91,0.00,,,0.00,VWS V15.00,2014-10-25 06:14:00,
2014-10-25 01:19:00,61.2,58.5,30.09,SE,135,0.0,0.0,91,0.00,,,0.00,VWS V15.00,2014-10-25 06:19:00,
2014-10-25 01:24:00,61.0,58.3,30.09,SE,135,0.0,0.0,91,0.00,,,0.00,VWS V15.00,2014-10-25 06:24:00,
2014-10-25 01:29:00,61.0,58.3,30.09,SE,135,0.0,0.0,91,0.00,,,0.00,VWS V15.00,2014-10-25 06:29:00,
2014-10-25 01:34:00,61.0,58.3,30.06,SE,135,0.0,0.0,91,0.00,,,0.00,VWS V15.00,2014-10-25 06:34:00,
2014-10-25 01:39:00,61.0,58.3,30.06,SE,135,0.0,0.0,91,0.00,,,0.00,VWS V15.00,2014-10-25 06:39:00,
2014-10-25 01:44:00,61.0,58.3,30.06,SE,135,0.0,0.0,91,0.00,,,0.00,VWS V15.00,2014-10-25 06:44:00,
2014-10-25 01:49:00,60.8,58.2,30.06,SE,135,0.0,0.0,91,0.00,,,0.00,VWS V15.00,2014-10-25 06:49:00,
2014-10-25 01:54:00,61.0,58.3,30.06,SE,135,0.0,0.0,91,0.00,,,0.00,VWS V15.00,2014-10-25 06:54:00,
2014-10-25 01:59:00,61.0,58.3,30.06,SE,135,0.0,0.0,91,0.00,,,0.00,VWS V15.00,2014-10-25 06:59:00,
2014-10-25 02:04:00,61.2,58.5,30.06,SE,135,0.0,0.0,91,0.00,,,0.00,VWS V15.00,2014-10-25 07:04:00,
2014-10-25 02:09:00,61.2,58.5,30.06,SE,135,0.0,0.0,91,0.00,,,0.00,VWS V15.00,2014-10-25 07:09:00,
2014-10-25 02:14:00,61.0,58.3,30.06,South,180,0.0,0.0,91,0.00,,,0.00,VWS V15.00,2014-10-25 07:14:00,
2014-10-25 02:19:00,61.0,58.3,30.06,SSE,158,0.0,0.0,91,0.00,,,0.00,VWS V15.00,2014-10-25 07:19:00,
2014-10-25 02:24:00,61.0,58.3,30.06,South,180,0.0,0.0,91,0.00,,,0.00,VWS V15.00,2014-10-25 07:24:00,
2014-10-25 02:28:00,60.8,58.2,30.06,SE,135,0.0,0.0,91,0.00,,,0.00,VWS V15.00,2014-10-25 07:28:00,
2014-10-25 02:33:00,61.0,58.3,30.06,SSE,158,0.0,0.0,91,0.00,,,0.00,VWS V15.00,2014-10-25 07:33:00,
2014-10-25 02:38:00,61.0,58.3,30.06,SSE,158,0.0,0.0,91,0.00,,,0.00,VWS V15.00,2014-10-25 07:38:00,
2014-10-25 02:43:00,60.8,58.2,30.06,SSE,158,0.0,0.0,91,0.00,,,0.00,VWS V15.00,2014-10-25 07:43:00,
2014-10-25 02:48:00,61.0,58.3,30.06,SE,135,0.0,0.0,91,0.00,,,0.00,VWS V15.00,2014-10-25 07:48:00,
2014-10-25 02:53:00,60.8,58.2,30.06,SSE,158,0.0,0.0,91,0.00,,,0.00,VWS V15.00,2014-10-25 07:53:00,
2014-10-25 02:58:00,61.0,58.3,30.06,SE,135,0.0,0.0,91,0.00,,,0.00,VWS V15.00,2014-10-25 07:58:00,
2014-10-25 03:03:00,61.0,58.3,30.06,SE,135,0.0,0.0,91,0.00,,,0.00,VWS V15.00,2014-10-25 08:03:00,
2014-10-25 03:08:00,61.0,58.3,30.06,SE,135,0.0,0.0,91,0.00,,,0.00,VWS V15.00,2014-10-25 08:08:00,
2014-10-25 03:13:00,61.2,58.5,30.06,SSE,158,0.0,0.0,91,0.00,,,0.00,VWS V15.00,2014-10-25 08:13:00,
2014-10-25 03:18:00,61.2,58.5,30.06,SSE,158,0.0,0.0,91,0.00,,,0.00,VWS V15.00,2014-10-25 08:18:00,
2014-10-25 03:23:00,61.3,58.7,30.06,SE,135,0.0,0.0,91,0.00,,,0.00,VWS V15.00,2014-10-25 08:23:00,
2014-10-25 03:28:00,61.3,58.7,30.06,SE,135,0.0,0.0,91,0.00,,,0.00,VWS V15.00,2014-10-25 08:28:00,
2014-10-25 03:33:00,61.3,58.7,30.09,SE,135,0.0,0.0,91,0.00,,,0.00,VWS V15.00,2014-10-25 08:33:00,
2014-10-25 03:38:00,61.2,58.5,30.09,South,180,0.0,0.0,91,0.00,,,0.00,VWS V15.00,2014-10-25 08:38:00,
2014-10-25 03:43:00,61.3,58.7,30.09,South,180,0.0,0.0,91,0.00,,,0.00,VWS V15.00,2014-10-25 08:43:00,
2014-10-25 03:48:00,61.3,58.7,30.06,South,180,0.0,0.0,91,0.00,,,0.00,VWS V15.00,2014-10-25 08:48:00,
2014-10-25 03:53:00,61.3,58.7,30.06,South,180,2.7,2.7,91,0.00,,,0.00,VWS V15.00,2014-10-25 08:53:00,
2014-10-25 03:58:00,61.5,58.9,30.06,South,180,0.0,0.0,91,0.00,,,0.00,VWS V15.00,2014-10-25 08:58:00,
2014-10-25 04:03:00,61.3,58.7,30.06,SE,135,0.0,0.0,91,0.00,,,0.00,VWS V15.00,2014-10-25 09:03:00,
2014-10-25 04:08:00,61.3,58.7,30.06,SE,135,0.0,0.0,91,0.00,,,0.00,VWS V15.00,2014-10-25 09:08:00,
2014-10-25 04:13:00,61.3,58.7,30.06,SE,135,0.0,0.0,91,0.00,,,0.00,VWS V15.00,2014-10-25 09:13:00,
2014-10-25 04:18:00,61.3,58.7,30.06,SE,135,0.0,0.0,91,0.00,,,0.00,VWS V15.00,2014-10-25 09:18:00,
2014-10-25 04:23:00,61.3,58.7,30.06,SSE,158,0.0,0.0,91,0.00,,,0.00,VWS V15.00,2014-10-25 09:23:00,
2014-10-25 04:28:00,61.3,58.7,30.06,SE,135,0.0,0.0,91,0.00,,,0.00,VWS V15.00,2014-10-25 09:28:00,
2014-10-25 04:33:00,61.3,58.7,30.09,SE,135,0.0,0.0,91,0.00,,,0.00,VWS V15.00,2014-10-25 09:33:00,
2014-10-25 04:38:00,61.3,58.7,30.09,ESE,112,0.0,0.0,91,0.00,,,0.00,VWS V15.00,2014-10-25 09:38:00,
2014-10-25 04:43:00,61.3,58.7,30.09,ESE,112,0.0,0.0,91,0.00,,,0.00,VWS V15.00,2014-10-25 09:43:00,
2014-10-25 04:48:00,61.3,58.7,30.06,ESE,112,0.0,0.0,91,0.00,,,0.00,VWS V15.00,2014-10-25 09:48:00,
2014-10-25 04:53:00,61.3,58.7,30.06,SE,135,0.0,0.0,91,0.00,,,0.00,VWS V15.00,2014-10-25 09:53:00,
2014-10-25 04:58:00,61.3,58.7,30.06,SE,135,0.0,0.0,91,0.00,,,0.00,VWS V15.00,2014-10-25 09:58:00,
2014-10-25 05:03:00,61.3,58.7,30.06,SE,135,0.0,0.0,91,0.00,,,0.00,VWS V15.00,2014-10-25 10:03:00,
2014-10-25 05:08:00,61.3,58.7,30.06,SE,135,0.0,0.0,91,0.00,,,0.00,VWS V15.00,2014-10-25 10:08:00,
2014-10-25 05:13:00,61.0,58.3,30.06,SE,135,0.0,0.0,91,0.00,,,0.00,VWS V15.00,2014-10-25 10:13:00,
2014-10-25 05:18:00,61.2,58.5,30.09,SE,135,0.0,0.0,91,0.00,,,0.00,VWS V15.00,2014-10-25 10:18:00,
2014-10-25 05:23:00,61.0,58.3,30.09,SE,135,0.0,0.0,91,0.00,,,0.00,VWS V15.00,2014-10-25 10:23:00,
2014-10-25 05:28:00,60.8,58.2,30.09,SE,135,0.0,0.0,91,0.00,,,0.00,VWS V15.00,2014-10-25 10:28:00,
2014-10-25 05:33:00,60.6,58.0,30.09,SE,135,0.0,0.0,91,0.00,,,0.00,VWS V15.00,2014-10-25 10:33:00,
2014-10-25 05:38:00,61.0,58.3,30.09,East,90,0.0,0.0,91,0.00,,,0.00,VWS V15.00,2014-10-25 10:38:00,
2014-10-25 05:43:00,61.2,58.5,30.09,SE,135,0.0,0.0,91,0.00,,,0.00,VWS V15.00,2014-10-25 10:43:00,
2014-10-25 05:48:00,60.8,58.2,30.09,SE,135,0.0,0.0,91,0.00,,,0.00,VWS V15.00,2014-10-25 10:48:00,
2014-10-25 05:53:00,60.6,58.0,30.09,SE,135,0.0,0.0,91,0.00,,,0.00,VWS V15.00,2014-10-25 10:53:00,
2014-10-25 05:58:00,60.6,58.0,30.09,SE,135,0.0,0.0,91,0.00,,,0.00,VWS V15.00,2014-10-25 10:58:00,
2014-10-25 06:03:00,60.8,58.2,30.09,SE,135,0.0,0.0,91,0.00,,,0.00,VWS V15.00,2014-10-25 11:03:00,
2014-10-25 06:08:00,61.0,58.3,30.09,SE,135,0.0,0.0,91,0.00,,,0.00,VWS V15.00,2014-10-25 11:08:00,
2014-10-25 06:13:00,61.0,58.3,30.09,SE,135,0.0,0.0,91,0.00,,,0.00,VWS V15.00,2014-10-25 11:13:00,
2014-10-25 06:18:00,61.0,58.3,30.09,SE,135,0.0,0.0,91,0.00,,,0.00,VWS V15.00,2014-10-25 11:18:00,
2014-10-25 06:23:00,61.0,58.3,30.09,SE,135,0.0,0.0,91,0.00,,,0.00,VWS V15.00,2014-10-25 11:23:00,
2014-10-25 06:28:00,60.8,57.8,30.09,East,90,0.0,0.0,90,0.00,,,0.00,VWS V15.00,2014-10-25 11:28:00,
2014-10-25 06:33:00,61.0,58.0,30.09,East,90,0.0,0.0,90,0.00,,,0.00,VWS V15.00,2014-10-25 11:33:00,
2014-10-25 06:38:00,60.6,58.0,30.09,ESE,112,0.0,0.0,91,0.00,,,0.00,VWS V15.00,2014-10-25 11:38:00,
2014-10-25 06:43:00,60.6,58.0,30.09,ESE,112,0.0,0.0,91,0.00,,,0.00,VWS V15.00,2014-10-25 11:43:00,
2014-10-25 06:48:00,61.0,58.0,30.09,SE,135,0.0,0.0,90,0.00,,,0.00,VWS V15.00,2014-10-25 11:48:00,
2014-10-25 06:53:00,61.0,58.0,30.09,SE,135,0.0,0.0,90,0.00,,,0.00,VWS V15.00,2014-10-25 11:53:00,
2014-10-25 06:58:00,61.2,58.2,30.09,SE,135,0.0,0.0,90,0.00,,,0.00,VWS V15.00,2014-10-25 11:58:00,
2014-10-25 07:03:00,61.0,58.0,30.09,SE,135,0.0,0.0,90,0.00,,,0.00,VWS V15.00,2014-10-25 12:03:00,
2014-10-25 07:08:00,61.0,58.0,30.09,SE,135,0.0,0.0,90,0.00,,,0.00,VWS V15.00,2014-10-25 12:08:00,
2014-10-25 07:13:00,61.3,58.4,30.09,SE,135,0.0,0.0,90,0.00,,,0.00,VWS V15.00,2014-10-25 12:13:00,
2014-10-25 07:18:00,61.2,58.2,30.09,SE,135,0.0,0.0,90,0.00,,,0.00,VWS V15.00,2014-10-25 12:18:00,
2014-10-25 07:23:00,61.3,58.4,30.09,SSE,158,0.0,0.0,90,0.00,,,0.00,VWS V15.00,2014-10-25 12:23:00,
2014-10-25 07:28:00,61.3,58.4,30.09,SE,135,0.0,0.0,90,0.00,,,0.00,VWS V15.00,2014-10-25 12:28:00,
2014-10-25 07:33:00,61.5,58.6,30.09,SE,135,0.0,0.0,90,0.00,,,0.00,VWS V15.00,2014-10-25 12:33:00,
2014-10-25 07:38:00,61.5,58.6,30.09,ESE,112,0.0,0.0,90,0.00,,,0.00,VWS V15.00,2014-10-25 12:38:00,
2014-10-25 07:43:00,61.7,58.7,30.09,SE,135,0.0,0.0,90,0.00,,,0.00,VWS V15.00,2014-10-25 12:43:00,
2014-10-25 07:48:00,61.7,58.7,30.09,SE,135,0.0,0.0,90,0.00,,,0.00,VWS V15.00,2014-10-25 12:48:00,
2014-10-25 07:53:00,61.9,58.9,30.09,ESE,112,0.0,0.0,90,0.00,,,0.00,VWS V15.00,2014-10-25 12:53:00,
2014-10-25 07:58:00,62.1,59.1,30.09,East,90,0.0,0.0,90,0.00,,,0.00,VWS V15.00,2014-10-25 12:58:00,
2014-10-25 08:03:00,62.6,59.6,30.09,SE,135,0.0,0.0,90,0.00,,,0.00,VWS V15.00,2014-10-25 13:03:00,
2014-10-25 08:08:00,63.0,60.0,30.09,SE,135,0.0,0.0,90,0.00,,,0.00,VWS V15.00,2014-10-25 13:08:00,
2014-10-25 08:13:00,63.3,60.3,30.09,SE,135,0.0,0.0,90,0.00,,,0.00,VWS V15.00,2014-10-25 13:13:00,
2014-10-25 08:18:00,63.5,60.5,30.09,SE,135,0.0,0.0,90,0.00,,,0.00,VWS V15.00,2014-10-25 13:18:00,
2014-10-25 08:23:00,63.9,60.9,30.09,SE,135,0.0,0.0,90,0.00,,,0.00,VWS V15.00,2014-10-25 13:23:00,
2014-10-25 08:28:00,63.7,60.7,30.09,SE,135,0.0,0.0,90,0.00,,,0.00,VWS V15.00,2014-10-25 13:28:00,
2014-10-25 08:33:00,63.7,61.0,30.09,SE,135,0.0,0.0,91,0.00,,,0.00,VWS V15.00,2014-10-25 13:33:00,
2014-10-25 08:38:00,63.7,61.0,30.09,SE,135,0.0,0.0,91,0.00,,,0.00,VWS V15.00,2014-10-25 13:38:00,
2014-10-25 08:43:00,62.8,60.4,30.09,SSE,158,0.0,0.0,92,0.00,,,0.00,VWS V15.00,2014-10-25 13:43:00,
2014-10-25 08:48:00,62.8,61.3,30.09,SE,135,0.0,0.0,95,0.00,,,0.00,VWS V15.00,2014-10-25 13:48:00,
2014-10-25 08:53:00,62.6,62.0,30.09,SE,135,0.0,0.0,98,0.00,,,0.00,VWS V15.00,2014-10-25 13:53:00,
2014-10-25 08:58:00,63.3,63.0,30.09,SSE,158,0.0,0.0,99,0.00,,,0.00,VWS V15.00,2014-10-25 13:58:00,
2014-10-25 09:03:00,64.4,63.8,30.09,South,180,0.0,0.0,98,0.00,,,0.00,VWS V15.00,2014-10-25 14:03:00,
2014-10-25 09:08:00,64.8,64.2,30.09,SSE,158,0.0,0.0,98,0.00,,,0.00,VWS V15.00,2014-10-25 14:08:00,
2014-10-25 09:13:00,66.2,64.4,30.09,SSE,158,0.0,0.0,94,0.00,,,0.00,VWS V15.00,2014-10-25 14:13:00,
2014-10-25 09:18:00,66.0,62.0,30.12,SE,135,0.0,0.0,87,0.00,,,0.00,VWS V15.00,2014-10-25 14:18:00,
2014-10-25 09:23:00,67.3,60.9,30.12,SE,135,0.0,0.0,80,0.00,,,0.00,VWS V15.00,2014-10-25 14:23:00,
2014-10-25 09:28:00,68.2,60.3,30.12,SW,225,2.2,2.2,76,0.00,,,0.00,VWS V15.00,2014-10-25 14:28:00,
2014-10-25 09:33:00,69.1,60.5,30.12,SW,225,2.2,2.2,74,0.00,,,0.00,VWS V15.00,2014-10-25 14:33:00,
2014-10-25 09:38:00,69.4,59.2,30.12,SSW,202,0.0,0.0,70,0.00,,,0.00,VWS V15.00,2014-10-25 14:38:00,
2014-10-25 09:43:00,70.2,59.5,30.12,SW,225,0.0,4.0,69,0.00,,,0.00,VWS V15.00,2014-10-25 14:43:00,
2014-10-25 09:48:00,70.5,59.5,30.12,SW,225,0.0,2.2,68,0.00,,,0.00,VWS V15.00,2014-10-25 14:48:00,
2014-10-25 09:53:00,70.7,58.8,30.12,SW,225,0.0,4.0,66,0.00,,,0.00,VWS V15.00,2014-10-25 14:53:00,
2014-10-25 09:58:00,71.4,59.5,30.12,South,180,0.0,4.9,66,0.00,,,0.00,VWS V15.00,2014-10-25 14:58:00,
2014-10-25 10:02:00,71.8,59.0,30.12,SW,225,5.4,5.4,64,0.00,,,0.00,VWS V15.00,2014-10-25 15:02:00,